Location: Lombray
(49.5154°N, 3.1089°E)
Time: 08:14:57
(UTC+00:00)

NOSS 0 Rocket - Pass Details

Date: 15 May 2026
Orbit: 936 x 952 km, 70.0° (Epoch: 5 June)

Event Time Altitude Azimuth Distance (km) Brightness Sun altitude
Rises 23:20:11 0° 327° (NNW) 3,616 8.1 -21.2°
Reaches altitude 10° 23:22:45 10° 324° (NW) 2,665 7.1 -21.3°
Maximum altitude 23:28:49 61° 246° (WSW) 1,059 4.0 -21.3°
Enters shadow 23:30:48 41° 187° (S) 1,328 4.2 -21.4°
